Santa Maria, CA

8:04 AM PST on February 21, 2018 (GMT -0800)
Santa Maria Public Airport / Captain G. Allan Hancock Field

Weather History for KSMX - October, 2011

Change the Weather History Date:

Saturday, October 29, 2011

  Actual Average Record
Temperature  
Mean Temperature 65 °F 59 °F  
Max Temperature 85 °F 72 °F 95 °F (1939)
Min Temperature 44 °F 46 °F 26 °F (1971)
Degree Days  
Heating Degree Days 0 6  
Month to date heating degree days 83 135  
Since 1 July heating degree days 238 352  
Cooling Degree Days 0 0  
Month to date cooling degree days 47 21  
Year to date cooling degree days 106 103  
Growing Degree Days 14 (Base 50)    
Moisture  
Dew Point 40 °F    
Average Humidity 44    
Maximum Humidity 71    
Minimum Humidity 16    
Precipitation  
Precipitation 0.00 in 0.04 in 1.40 in (1996)
Month to date precipitation 0.75 0.53  
Year to date precipitation 11.81 10.43  
Since 1 July precipitation 0.84  
Sea Level Pressure  
Sea Level Pressure 30.03 in    
Wind  
Wind Speed 5 mph (WSW)    
Max Wind Speed 18 mph    
Max Gust Speed 22 mph    
Visibility 10 miles    
Events      
T = Trace of Precipitation, MM = Missing Value Source: NWS Daily Summary

Daily Weather History Graph

Daily Weather History Graph

Search for Another Location

Airport or City:

Trip Planner

Search our weather history database for the weather conditions in past years. The results will help you decide how hot, cold, wet, or windy it might be!

Date:

Astronomy

Oct. 29, 2011 Rise Set
Actual Time 7:19 AM PDT 6:10 PM PDT
Civil Twilight 6:53 AM PDT 6:36 PM PDT
Nautical Twilight 6:23 AM PDT 7:06 PM PDT
Astronomical Twilight 5:54 AM PDT 7:36 PM PDT
Moon 10:39 AM PDT (10/29) 8:47 PM PDT (10/29)
Length of Visible Light 11h 43m
Length of Day
10h 51m
Waxing Crescent, 12% of the Moon is Illuminated
Oct 29
Waxing Crescent
Nov 2
First Quarter
Nov 10
Full
Nov 18
Last Quarter
Nov 24
New

Hourly Weather History & Observations

Time (PDT) Temp. Windchill Dew Point Humidity Pressure Visibility Wind Dir Wind Speed Gust Speed Precip Events Conditions
12:51 AM 46.9 °F - 37.0 °F 68% 30.09 in 10.0 mi SE 3.5 mph - N/A   Clear
1:51 AM 48.0 °F - 37.9 °F 68% 30.08 in 10.0 mi Calm Calm - N/A   Clear
2:51 AM 46.9 °F - 37.9 °F 71% 30.06 in 10.0 mi Calm Calm - N/A   Clear
3:51 AM 46.9 °F - 37.9 °F 71% 30.05 in 10.0 mi SE 3.5 mph - N/A   Clear
4:51 AM 46.9 °F - 37.0 °F 68% 30.05 in 10.0 mi Calm Calm - N/A   Clear
5:51 AM 46.0 °F 44.8 °F 36.0 °F 68% 30.05 in 10.0 mi East 3.5 mph - N/A   Clear
6:51 AM 45.0 °F 42.6 °F 36.0 °F 71% 30.06 in 10.0 mi South 4.6 mph - N/A   Clear
7:51 AM 46.0 °F 44.8 °F 36.0 °F 68% 30.06 in 10.0 mi East 3.5 mph - N/A   Clear
8:51 AM 57.0 °F - 37.9 °F 49% 30.07 in 10.0 mi Calm Calm - N/A   Clear
9:51 AM 66.0 °F - 36.0 °F 33% 30.07 in 10.0 mi Calm Calm - N/A   Clear
10:51 AM 73.9 °F - 36.0 °F 25% 30.06 in 10.0 mi NW 4.6 mph - N/A   Clear
11:51 AM 80.1 °F - 37.0 °F 21% 30.04 in 9.0 mi WNW 4.6 mph - N/A   Clear
12:51 PM 84.9 °F - 34.0 °F 16% 30.02 in 10.0 mi WNW 9.2 mph - N/A   Clear
1:51 PM 82.9 °F - 36.0 °F 19% 30.00 in 10.0 mi WNW 15.0 mph - N/A   Clear
2:02 PM - - - N/A% - - North - - N/A   Unknown
2:51 PM 82.9 °F - 39.9 °F 22% 29.98 in 10.0 mi WNW 13.8 mph - N/A   Clear
3:51 PM 78.1 °F - 48.0 °F 35% 29.98 in 9.0 mi WNW 12.7 mph - N/A   Clear
4:51 PM 75.9 °F - 46.0 °F 35% 29.98 in 9.0 mi NW 9.2 mph - N/A   Clear
5:02 PM - - - N/A% - - North - - N/A   Unknown
5:51 PM 69.1 °F - 45.0 °F 42% 29.98 in 10.0 mi NNW 6.9 mph - N/A   Partly Cloudy
6:51 PM 66.0 °F - 45.0 °F 47% 29.99 in 10.0 mi West 4.6 mph - N/A   Clear
7:51 PM 62.1 °F - 46.9 °F 58% 30.00 in 10.0 mi South 4.6 mph - N/A   Clear
8:51 PM 59.0 °F - 44.1 °F 58% 30.01 in 9.0 mi Calm Calm - N/A   Clear
9:51 PM 55.9 °F - 43.0 °F 62% 30.01 in 9.0 mi Calm Calm - N/A   Clear
10:51 PM 55.9 °F - 42.1 °F 60% 30.02 in 9.0 mi South 5.8 mph - N/A   Clear
11:51 PM 53.1 °F - 42.1 °F 66% 30.01 in 9.0 mi ESE 5.8 mph - N/A   Clear